SWA2640 KBHM-KDAL

Flight info

Callsign SWA2640
Flight time 1h 30m
Altitude 30000
Route JOEYE HRISN MLU PUDJE REDDN4
Aircraft B738/M-SDE2E3FGHIRWXY/LB1

Departure

Time 2026-05-06 00:58
Airport Birmingham-Shuttlesworth International Airport (KBHM)

Arrival

Time 2026-05-06 02:29
Airport Dallas Love Field (KDAL)
Time Latitude Longitude Altitude Speed Heading
2026-05-06 00:20 33.56328 -86.75232 653 ft 0 kts 166°
2026-05-06 00:46 33.56329 -86.75233 652 ft 1 kts 167°
2026-05-06 00:46 33.56343 -86.75240 652 ft 2 kts 138°
2026-05-06 00:46 33.56352 -86.75253 652 ft 2 kts 114°
2026-05-06 00:46 33.56355 -86.75271 652 ft 2 kts 87°
2026-05-06 00:47 33.56352 -86.75288 652 ft 1 kts 62°
2026-05-06 00:47 33.56349 -86.75294 652 ft 1 kts 52°
2026-05-06 00:47 33.56347 -86.75298 652 ft 0 kts 55°
2026-05-06 00:51 33.56353 -86.75287 652 ft 2 kts 56°
2026-05-06 00:51 33.56366 -86.75264 652 ft 3 kts 56°
2026-05-06 00:51 33.56382 -86.75236 652 ft 4 kts 56°
2026-05-06 00:51 33.56399 -86.75204 652 ft 4 kts 55°
2026-05-06 00:52 33.56426 -86.75182 652 ft 4 kts 12°
2026-05-06 00:52 33.56460 -86.75185 652 ft 5 kts 353°
2026-05-06 00:52 33.56496 -86.75176 652 ft 5 kts 27°
2026-05-06 00:52 33.56522 -86.75143 652 ft 5 kts 57°
2026-05-06 00:53 33.56544 -86.75104 652 ft 5 kts 54°
2026-05-06 00:53 33.56569 -86.75061 652 ft 6 kts 55°
2026-05-06 00:53 33.56591 -86.75007 652 ft 8 kts 81°
2026-05-06 00:53 33.56582 -86.74937 652 ft 8 kts 99°
2026-05-06 00:54 33.56594 -86.74869 652 ft 8 kts 59°
2026-05-06 00:54 33.56629 -86.74808 652 ft 9 kts 55°
2026-05-06 00:54 33.56667 -86.74743 652 ft 10 kts 55°
2026-05-06 00:54 33.56709 -86.74669 652 ft 11 kts 55°
2026-05-06 00:55 33.56759 -86.74585 652 ft 13 kts 54°
2026-05-06 00:55 33.56814 -86.74489 652 ft 14 kts 55°
2026-05-06 00:55 33.56876 -86.74383 652 ft 16 kts 54°
2026-05-06 00:55 33.56943 -86.74267 652 ft 17 kts 54°
2026-05-06 00:56 33.57012 -86.74146 652 ft 17 kts 56°
2026-05-06 00:56 33.57081 -86.74030 652 ft 17 kts 55°
2026-05-06 00:56 33.57138 -86.73927 652 ft 17 kts 56°
2026-05-06 00:56 33.57207 -86.73838 652 ft 10 kts 17°
2026-05-06 00:57 33.57267 -86.73862 652 ft 9 kts 324°
2026-05-06 00:57 33.57318 -86.73913 652 ft 10 kts 301°
2026-05-06 00:57 33.57305 -86.73991 652 ft 13 kts 235°
2026-05-06 00:57 33.57111 -86.74325 652 ft 82 kts 235°
2026-05-06 00:58 33.56667 -86.75097 653 ft 140 kts 234°
2026-05-06 00:58 33.56033 -86.76198 829 ft 171 kts 233°
2026-05-06 00:58 33.55358 -86.77350 1502 ft 170 kts 232°
2026-05-06 00:58 33.54666 -86.78495 2140 ft 174 kts 233°
2026-05-06 00:59 33.53979 -86.79736 2668 ft 184 kts 233°
2026-05-06 00:59 33.53273 -86.81098 3038 ft 205 kts 234°
2026-05-06 00:59 33.52530 -86.82593 3791 ft 210 kts 240°
2026-05-06 00:59 33.52159 -86.84276 4556 ft 216 kts 256°
2026-05-06 01:00 33.52002 -86.86072 5328 ft 219 kts 260°
2026-05-06 01:00 33.51899 -86.87923 5931 ft 231 kts 261°
2026-05-06 01:00 33.51788 -86.89928 6314 ft 254 kts 262°
2026-05-06 01:00 33.51669 -86.92065 7059 ft 261 kts 262°
2026-05-06 01:01 33.51547 -86.94260 7891 ft 265 kts 262°
2026-05-06 01:01 33.51423 -86.96446 8771 ft 267 kts 263°
2026-05-06 01:01 33.51295 -86.98669 9653 ft 268 kts 264°
2026-05-06 01:01 33.51165 -87.00903 9992 ft 274 kts 264°
2026-05-06 01:02 33.51037 -87.03147 9982 ft 267 kts 264°
2026-05-06 01:02 33.50910 -87.05376 9998 ft 265 kts 264°
2026-05-06 01:02 33.50779 -87.07632 10227 ft 285 kts 264°
2026-05-06 01:02 33.50637 -87.10098 10450 ft 309 kts 265°
2026-05-06 01:03 33.50485 -87.12776 10800 ft 327 kts 265°
2026-05-06 01:03 33.50333 -87.15488 11599 ft 329 kts 266°
2026-05-06 01:03 33.50179 -87.18227 12439 ft 330 kts 266°
2026-05-06 01:03 33.50027 -87.20951 13149 ft 334 kts 267°
2026-05-06 01:04 33.49871 -87.23733 13976 ft 335 kts 267°
2026-05-06 01:04 33.49716 -87.26532 14751 ft 338 kts 268°
2026-05-06 01:04 33.49560 -87.29323 15533 ft 340 kts 268°
2026-05-06 01:04 33.49404 -87.32149 16252 ft 343 kts 268°
2026-05-06 01:05 33.49253 -87.34992 16958 ft 345 kts 270°
2026-05-06 01:05 33.49209 -87.37854 17678 ft 346 kts 272°
2026-05-06 01:05 33.49223 -87.40736 18354 ft 348 kts 273°
2026-05-06 01:05 33.49239 -87.43652 18998 ft 352 kts 272°
2026-05-06 01:06 33.49246 -87.46577 19588 ft 356 kts 272°
2026-05-06 01:06 33.49247 -87.49558 20174 ft 359 kts 272°
2026-05-06 01:06 33.49244 -87.52555 20728 ft 363 kts 272°
2026-05-06 01:06 33.49239 -87.55582 21253 ft 367 kts 272°
2026-05-06 01:07 33.49233 -87.58656 21796 ft 370 kts 272°
2026-05-06 01:07 33.49225 -87.61736 22283 ft 375 kts 272°
2026-05-06 01:07 33.49216 -87.64765 22798 ft 377 kts 272°
2026-05-06 01:07 33.49205 -87.67935 23231 ft 382 kts 271°
2026-05-06 01:08 33.49192 -87.71089 23766 ft 384 kts 271°
2026-05-06 01:08 33.49178 -87.74301 24240 ft 388 kts 271°
2026-05-06 01:08 33.49164 -87.77544 24801 ft 389 kts 271°
2026-05-06 01:08 33.49149 -87.80769 25387 ft 389 kts 272°
2026-05-06 01:09 33.49134 -87.83987 25908 ft 390 kts 272°
2026-05-06 01:09 33.49118 -87.87233 26438 ft 390 kts 272°
2026-05-06 01:09 33.49101 -87.90463 26970 ft 390 kts 272°
2026-05-06 01:09 33.49084 -87.93735 27478 ft 390 kts 272°
2026-05-06 01:10 33.49066 -87.96963 27927 ft 391 kts 272°
2026-05-06 01:10 33.49048 -88.00208 28423 ft 391 kts 273°
2026-05-06 01:10 33.49028 -88.03430 29044 ft 387 kts 272°
2026-05-06 01:10 33.49006 -88.06634 29671 ft 383 kts 273°
2026-05-06 01:11 33.48985 -88.09811 29920 ft 383 kts 273°
2026-05-06 01:11 33.48944 -88.16267 29920 ft 390 kts 273°
2026-05-06 01:12 33.48898 -88.22806 29917 ft 392 kts 273°
2026-05-06 01:12 33.48846 -88.29288 29917 ft 391 kts 273°
2026-05-06 01:13 33.48797 -88.35178 29917 ft 390 kts 273°
2026-05-06 01:13 33.48739 -88.41697 29917 ft 391 kts 273°
2026-05-06 01:14 33.48008 -88.51541 29917 ft 397 kts 265°
2026-05-06 01:14 33.46749 -88.58039 29917 ft 401 kts 260°
2026-05-06 01:15 33.45134 -88.64524 29917 ft 402 kts 259°
2026-05-06 01:15 33.43649 -88.70297 29916 ft 403 kts 258°
2026-05-06 01:16 33.41980 -88.76737 29917 ft 403 kts 258°
2026-05-06 01:16 33.40327 -88.83105 29916 ft 403 kts 258°
2026-05-06 01:17 33.38660 -88.89513 29908 ft 403 kts 258°
2026-05-06 01:17 33.36988 -88.95924 29901 ft 402 kts 258°
2026-05-06 01:18 33.35331 -89.02261 29892 ft 402 kts 258°
2026-05-06 01:18 33.33652 -89.08666 29890 ft 404 kts 258°
2026-05-06 01:19 33.31971 -89.15067 29890 ft 403 kts 258°
2026-05-06 01:19 33.30296 -89.21426 29890 ft 403 kts 258°
2026-05-06 01:20 33.28609 -89.27818 29890 ft 403 kts 258°
2026-05-06 01:20 33.26929 -89.34169 29890 ft 404 kts 258°
2026-05-06 01:21 33.25232 -89.40573 29890 ft 404 kts 258°
2026-05-06 01:21 33.23535 -89.46954 29890 ft 403 kts 258°
2026-05-06 01:22 33.21840 -89.53320 29890 ft 403 kts 258°
2026-05-06 01:22 33.20146 -89.59665 29890 ft 403 kts 258°
2026-05-06 01:23 33.18438 -89.66048 29891 ft 404 kts 257°
2026-05-06 01:23 33.16714 -89.72450 29890 ft 404 kts 257°
2026-05-06 01:24 33.15001 -89.78802 29889 ft 404 kts 257°
2026-05-06 01:24 33.13482 -89.84434 29890 ft 404 kts 257°
2026-05-06 01:25 33.11752 -89.90839 29890 ft 404 kts 257°
2026-05-06 01:25 33.10027 -89.97209 29892 ft 404 kts 257°
2026-05-06 01:26 33.08301 -90.03574 29892 ft 402 kts 257°
2026-05-06 01:26 33.06581 -90.09895 29888 ft 401 kts 257°
2026-05-06 01:27 33.04858 -90.16219 29884 ft 402 kts 257°
2026-05-06 01:27 33.03294 -90.21947 29881 ft 402 kts 257°
2026-05-06 01:28 33.01565 -90.28265 29882 ft 402 kts 257°
2026-05-06 01:28 32.99826 -90.34605 29887 ft 401 kts 257°
2026-05-06 01:29 32.98092 -90.40913 29892 ft 401 kts 257°
2026-05-06 01:29 32.96363 -90.47189 29897 ft 401 kts 257°
2026-05-06 01:30 32.94621 -90.53500 29899 ft 401 kts 256°
2026-05-06 01:30 32.92880 -90.59791 29899 ft 400 kts 256°
2026-05-06 01:31 32.91136 -90.66079 29900 ft 401 kts 256°
2026-05-06 01:31 32.89375 -90.72389 29898 ft 400 kts 256°
2026-05-06 01:32 32.87627 -90.78645 29899 ft 400 kts 256°
2026-05-06 01:32 32.85872 -90.84925 29899 ft 400 kts 256°
2026-05-06 01:33 32.84122 -90.91177 29899 ft 400 kts 256°
2026-05-06 01:33 32.82366 -90.97437 29899 ft 399 kts 256°
2026-05-06 01:34 32.80611 -91.03679 29889 ft 398 kts 256°
2026-05-06 01:34 32.78849 -91.09937 29880 ft 399 kts 256°
2026-05-06 01:35 32.77094 -91.16157 29871 ft 399 kts 256°
2026-05-06 01:35 32.75326 -91.22408 29862 ft 398 kts 256°
2026-05-06 01:36 32.73573 -91.28589 29862 ft 397 kts 256°
2026-05-06 01:36 32.71811 -91.34792 29862 ft 397 kts 256°
2026-05-06 01:37 32.70039 -91.41016 29862 ft 397 kts 256°
2026-05-06 01:37 32.68270 -91.47220 29862 ft 397 kts 256°
2026-05-06 01:38 32.66497 -91.53423 29862 ft 397 kts 256°
2026-05-06 01:38 32.64722 -91.59615 29862 ft 397 kts 256°
2026-05-06 01:39 32.62946 -91.65803 29862 ft 396 kts 255°
2026-05-06 01:39 32.61153 -91.72009 29862 ft 397 kts 255°
2026-05-06 01:40 32.59370 -91.78176 29862 ft 396 kts 255°
2026-05-06 01:40 32.57583 -91.84354 29862 ft 396 kts 255°
2026-05-06 01:41 32.55797 -91.90517 29862 ft 396 kts 255°
2026-05-06 01:41 32.54008 -91.96680 29859 ft 396 kts 255°
2026-05-06 01:42 32.52569 -92.02892 29852 ft 391 kts 262°
2026-05-06 01:42 32.51831 -92.09304 29845 ft 389 kts 266°
2026-05-06 01:43 32.51437 -92.15691 29837 ft 389 kts 268°
2026-05-06 01:43 32.51163 -92.22051 29835 ft 389 kts 269°
2026-05-06 01:44 32.50926 -92.28471 29835 ft 389 kts 269°
2026-05-06 01:44 32.50703 -92.34849 29835 ft 389 kts 269°
2026-05-06 01:45 32.50484 -92.41243 29835 ft 389 kts 269°
2026-05-06 01:45 32.50265 -92.47639 29835 ft 389 kts 269°
2026-05-06 01:46 32.50045 -92.54024 29835 ft 389 kts 269°
2026-05-06 01:46 32.49847 -92.59730 29835 ft 389 kts 269°
2026-05-06 01:47 32.49622 -92.66110 29836 ft 389 kts 269°
2026-05-06 01:47 32.49386 -92.72533 29835 ft 389 kts 269°
2026-05-06 01:48 32.49149 -92.78912 29835 ft 389 kts 269°
2026-05-06 01:48 32.48912 -92.85319 29835 ft 389 kts 268°
2026-05-06 01:49 32.48694 -92.91157 29833 ft 389 kts 268°
2026-05-06 01:49 32.48446 -92.97532 29823 ft 389 kts 268°
2026-05-06 01:50 32.48198 -93.03955 29813 ft 389 kts 268°
2026-05-06 01:50 32.47960 -93.10339 29803 ft 389 kts 269°
2026-05-06 01:51 32.47725 -93.16718 29798 ft 390 kts 269°
2026-05-06 01:51 32.47488 -93.23157 29798 ft 390 kts 268°
2026-05-06 01:52 32.47252 -93.29551 29798 ft 390 kts 268°
2026-05-06 01:52 32.47012 -93.35958 29798 ft 390 kts 268°
2026-05-06 01:53 32.46769 -93.42381 29798 ft 389 kts 268°
2026-05-06 01:53 32.46522 -93.48783 29798 ft 389 kts 268°
2026-05-06 01:54 32.46275 -93.55158 29798 ft 389 kts 268°
2026-05-06 01:54 32.46024 -93.61532 29798 ft 389 kts 268°
2026-05-06 01:55 32.45765 -93.67963 29798 ft 390 kts 268°
2026-05-06 01:55 32.45500 -93.74350 29798 ft 389 kts 268°
2026-05-06 01:56 32.45233 -93.80745 29798 ft 389 kts 268°
2026-05-06 01:56 32.44996 -93.86435 29798 ft 389 kts 268°
2026-05-06 01:57 32.44752 -93.92228 29798 ft 389 kts 268°
2026-05-06 01:57 32.44506 -93.98045 29798 ft 390 kts 268°
2026-05-06 01:58 32.44231 -94.04474 29798 ft 389 kts 268°
2026-05-06 01:58 32.43956 -94.10838 29798 ft 389 kts 268°
2026-05-06 01:59 32.43675 -94.17236 29798 ft 389 kts 268°
2026-05-06 01:59 32.43391 -94.23649 29798 ft 389 kts 268°
2026-05-06 02:00 32.43105 -94.30041 29798 ft 389 kts 268°
2026-05-06 02:00 32.42818 -94.36358 29798 ft 389 kts 268°
2026-05-06 02:01 32.42546 -94.42308 29798 ft 389 kts 268°
2026-05-06 02:01 32.42248 -94.48740 29798 ft 389 kts 268°
2026-05-06 02:02 32.41949 -94.55115 29798 ft 389 kts 268°
2026-05-06 02:02 32.41648 -94.61483 29798 ft 389 kts 268°
2026-05-06 02:03 32.41342 -94.67836 29798 ft 389 kts 267°
2026-05-06 02:03 32.41025 -94.74241 29798 ft 389 kts 267°
2026-05-06 02:04 32.40736 -94.80063 29798 ft 388 kts 267°
2026-05-06 02:04 32.40449 -94.85832 29797 ft 388 kts 267°
2026-05-06 02:05 32.40132 -94.92181 29794 ft 388 kts 266°
2026-05-06 02:05 32.39815 -94.98567 29791 ft 388 kts 267°
2026-05-06 02:06 32.39735 -95.01709 29540 ft 380 kts 269°
2026-05-06 02:06 32.39714 -95.04806 28853 ft 373 kts 269°
2026-05-06 02:06 32.39719 -95.07842 28209 ft 372 kts 270°
2026-05-06 02:06 32.39735 -95.10954 27563 ft 382 kts 270°
2026-05-06 02:07 32.39756 -95.14080 26894 ft 384 kts 270°
2026-05-06 02:07 32.39782 -95.17242 26219 ft 379 kts 270°
2026-05-06 02:07 32.39807 -95.20326 25565 ft 375 kts 270°
2026-05-06 02:07 32.39834 -95.23358 24957 ft 371 kts 270°
2026-05-06 02:08 32.39859 -95.26400 24616 ft 366 kts 270°
2026-05-06 02:08 32.39885 -95.29413 24424 ft 368 kts 270°
2026-05-06 02:08 32.39918 -95.32438 23916 ft 375 kts 270°
2026-05-06 02:08 32.39959 -95.35488 23220 ft 361 kts 270°
2026-05-06 02:09 32.40001 -95.38412 22660 ft 360 kts 269°
2026-05-06 02:09 32.40042 -95.41403 22074 ft 365 kts 269°
2026-05-06 02:09 32.40085 -95.44399 21468 ft 362 kts 269°
2026-05-06 02:09 32.40126 -95.47353 20875 ft 358 kts 269°
2026-05-06 02:10 32.40166 -95.50266 20290 ft 356 kts 269°
2026-05-06 02:10 32.40205 -95.53165 19708 ft 355 kts 269°
2026-05-06 02:10 32.40243 -95.56089 19115 ft 353 kts 269°
2026-05-06 02:10 32.40281 -95.58964 18534 ft 352 kts 268°
2026-05-06 02:11 32.40315 -95.61846 17948 ft 351 kts 268°
2026-05-06 02:11 32.40348 -95.64706 17415 ft 348 kts 268°
2026-05-06 02:11 32.40379 -95.67594 16951 ft 347 kts 268°
2026-05-06 02:11 32.40436 -95.70429 16392 ft 348 kts 269°
2026-05-06 02:12 32.40585 -95.73265 15817 ft 346 kts 270°
2026-05-06 02:12 32.40757 -95.76090 15261 ft 345 kts 270°
2026-05-06 02:12 32.40926 -95.78938 14694 ft 344 kts 270°
2026-05-06 02:12 32.41086 -95.81763 14128 ft 343 kts 270°
2026-05-06 02:13 32.41239 -95.84534 13572 ft 342 kts 270°
2026-05-06 02:13 32.41390 -95.87329 13010 ft 340 kts 270°
2026-05-06 02:13 32.41492 -95.89237 12627 ft 340 kts 270°
2026-05-06 02:14 32.41730 -95.93761 11716 ft 339 kts 270°
2026-05-06 02:14 32.41875 -95.96518 11165 ft 339 kts 270°
2026-05-06 02:14 32.42018 -95.99236 10608 ft 319 kts 271°
2026-05-06 02:14 32.42152 -96.01762 10152 ft 300 kts 271°
2026-05-06 02:15 32.42276 -96.04137 9978 ft 277 kts 271°
2026-05-06 02:15 32.42391 -96.06413 9970 ft 274 kts 271°
2026-05-06 02:15 32.42503 -96.08639 9852 ft 275 kts 271°
2026-05-06 02:15 32.42617 -96.10902 9625 ft 273 kts 271°
2026-05-06 02:16 32.42731 -96.13158 9332 ft 274 kts 271°
2026-05-06 02:16 32.42843 -96.15379 9052 ft 273 kts 271°
2026-05-06 02:16 32.42956 -96.17615 8765 ft 273 kts 272°
2026-05-06 02:16 32.43070 -96.19864 8444 ft 272 kts 272°
2026-05-06 02:17 32.43184 -96.22093 8115 ft 269 kts 272°
2026-05-06 02:17 32.43297 -96.24306 7786 ft 267 kts 271°
2026-05-06 02:17 32.43402 -96.26446 7451 ft 257 kts 271°
2026-05-06 02:17 32.43505 -96.28519 7137 ft 253 kts 272°
2026-05-06 02:18 32.43607 -96.30570 6810 ft 251 kts 271°
2026-05-06 02:18 32.43711 -96.32658 6487 ft 252 kts 271°
2026-05-06 02:18 32.43812 -96.34694 6172 ft 248 kts 273°
2026-05-06 02:18 32.44202 -96.36683 5871 ft 254 kts 288°
2026-05-06 02:19 32.45096 -96.38468 5721 ft 259 kts 306°
2026-05-06 02:19 32.46349 -96.40048 5578 ft 264 kts 312°
2026-05-06 02:19 32.47663 -96.41519 5437 ft 261 kts 313°
2026-05-06 02:19 32.48972 -96.43002 5297 ft 262 kts 313°
2026-05-06 02:20 32.51561 -96.45995 5012 ft 257 kts 312°
2026-05-06 02:20 32.52827 -96.47478 4876 ft 260 kts 312°
2026-05-06 02:20 32.54108 -96.48988 4728 ft 256 kts 311°
2026-05-06 02:21 32.55374 -96.50465 4597 ft 257 kts 313°
2026-05-06 02:21 32.56652 -96.51952 4458 ft 258 kts 311°
2026-05-06 02:21 32.57912 -96.53445 4341 ft 249 kts 312°
2026-05-06 02:21 32.59120 -96.54826 4193 ft 235 kts 313°
2026-05-06 02:22 32.60251 -96.56141 4061 ft 225 kts 312°
2026-05-06 02:22 32.61332 -96.57443 3949 ft 223 kts 311°
2026-05-06 02:22 32.62442 -96.58765 3843 ft 223 kts 311°
2026-05-06 02:22 32.63534 -96.60041 3725 ft 221 kts 312°
2026-05-06 02:23 32.64623 -96.61310 3612 ft 218 kts 313°
2026-05-06 02:23 32.65702 -96.62559 3492 ft 216 kts 313°
2026-05-06 02:23 32.66770 -96.63775 3369 ft 214 kts 314°
2026-05-06 02:23 32.67836 -96.64983 3258 ft 206 kts 312°
2026-05-06 02:24 32.68867 -96.66190 3165 ft 213 kts 312°
2026-05-06 02:24 32.69883 -96.67378 3066 ft 201 kts 313°
2026-05-06 02:24 32.70867 -96.68515 2926 ft 191 kts 314°
2026-05-06 02:24 32.71830 -96.69621 2812 ft 191 kts 313°
2026-05-06 02:25 32.72762 -96.70694 2692 ft 185 kts 314°
2026-05-06 02:25 32.73684 -96.71764 2618 ft 182 kts 314°
2026-05-06 02:25 32.74571 -96.72794 2480 ft 172 kts 315°
2026-05-06 02:25 32.75404 -96.73732 2391 ft 159 kts 316°
2026-05-06 02:26 32.76208 -96.74671 2279 ft 162 kts 315°
2026-05-06 02:26 32.76992 -96.75575 2175 ft 153 kts 316°
2026-05-06 02:26 32.77754 -96.76466 2220 ft 157 kts 315°
2026-05-06 02:26 32.78527 -96.77358 2032 ft 149 kts 315°
2026-05-06 02:27 32.79293 -96.78249 1863 ft 151 kts 319°
2026-05-06 02:27 32.80026 -96.79093 1666 ft 143 kts 319°
2026-05-06 02:27 32.80741 -96.79917 1521 ft 143 kts 319°
2026-05-06 02:27 32.81481 -96.80759 1283 ft 143 kts 321°
2026-05-06 02:28 32.82162 -96.81558 1087 ft 142 kts 317°
2026-05-06 02:28 32.82870 -96.82369 892 ft 134 kts 321°
2026-05-06 02:28 32.83521 -96.83130 692 ft 133 kts 318°
2026-05-06 02:28 32.84183 -96.83894 554 ft 129 kts 318°
2026-05-06 02:29 32.84764 -96.84563 494 ft 88 kts 315°
2026-05-06 02:29 32.85057 -96.84902 493 ft 41 kts 316°
2026-05-06 02:29 32.85238 -96.85112 493 ft 32 kts 315°
2026-05-06 02:29 32.85347 -96.85240 493 ft 11 kts 316°
2026-05-06 02:30 32.85362 -96.85304 493 ft 7 kts 233°
2026-05-06 02:30 32.85326 -96.85346 493 ft 7 kts 221°
2026-05-06 02:30 32.85285 -96.85347 493 ft 7 kts 148°
2026-05-06 02:30 32.85234 -96.85293 493 ft 11 kts 137°
2026-05-06 02:31 32.85167 -96.85214 493 ft 15 kts 135°
2026-05-06 02:31 32.85090 -96.85126 493 ft 15 kts 136°
2026-05-06 02:31 32.85014 -96.85037 493 ft 15 kts 135°
2026-05-06 02:31 32.84940 -96.84953 493 ft 14 kts 136°
2026-05-06 02:32 32.84872 -96.84873 493 ft 12 kts 135°
2026-05-06 02:32 32.84817 -96.84811 493 ft 8 kts 139°
2026-05-06 02:32 32.84768 -96.84816 493 ft 7 kts 214°
2026-05-06 02:32 32.84743 -96.84866 493 ft 6 kts 266°
2026-05-06 02:33 32.84742 -96.84919 493 ft 6 kts 270°
2026-05-06 02:33 32.84743 -96.84951 493 ft 5 kts 270°
2026-05-06 02:33 32.84711 -96.84987 493 ft 3 kts 182°
2026-05-06 02:34 32.84683 -96.84988 493 ft 4 kts 180°
2026-05-06 02:34 32.84656 -96.84988 493 ft 2 kts 180°
2026-05-06 02:34 32.84643 -96.84988 493 ft 0 kts 180°